Observations for Trim Market St
| Time | AQI | Temp °C | Hum % | Pres Pa | CO μg/m³ | H₂S μg/m³ | NO μg/m³ | NO₂ μg/m³ | O₃ μg/m³ | SO₂ μg/m³ | PM1 μg/m³ | PM2.5 μg/m³ | PM10 μg/m³ |
|---|---|---|---|---|---|---|---|---|---|---|---|---|---|
| Tuesday 18 August 2026 | |||||||||||||
| 13:13 | 2 | 21.5 | 61 | 56,667 | 0 | 5.41 | 1.26 | 14.81 | 88.47 | 0 | 0 | 1.47 | 2.1 |
| 13:12 | 2 | 21.6 | 61 | 56,774 | 0 | 5.6 | 3.01 | 13.75 | 90.01 | 0 | 0 | 1.48 | 2.09 |
| 13:11 | 2 | 21.6 | 61 | 56,868 | 0 | 5.47 | 3.31 | 13.22 | 98.55 | 0 | 0 | 1.49 | 2.08 |
| 13:09 | 2 | 21.8 | 60 | 57,039 | 0 | 2.32 | 3.36 | 12.98 | 78.24 | 0 | 0 | 1.51 | 2.05 |
| 13:08 | 2 | 21.9 | 60 | 57,101 | 0 | 5.57 | 3.32 | 36.05 | 63.2 | 0 | 0 | 1.53 | 2.03 |
| 13:07 | 2 | 22 | 60 | 57,171 | 0 | 3.82 | 2.64 | 19.05 | 77.68 | 0 | 0 | 1.54 | 2.02 |
| 13:05 | 2 | 22.3 | 59 | 57,290 | 0 | 1.89 | 2.42 | 12.86 | 90.92 | 0 | 0 | 1.57 | 1.99 |
| 13:01 | 2 | 22.9 | 58 | 57,415 | 0 | 1.85 | 1.48 | 12.95 | 83.68 | 0 | 0.71 | 2.11 | 2.64 |
| 13:00 | 2 | 23.1 | 58 | 57,439 | 0 | 2.64 | 1.38 | 13.5 | 83.3 | 0 | 0 | 1.63 | 1.92 |
| 12:53 | 2 | 24.1 | 54 | 57,127 | 0 | 1.21 | 3.12 | 19.6 | 70.69 | 0 | 0 | 1.75 | 1.78 |
| 12:51 | 2 | 24.4 | 54 | 56,876 | 0 | 0 | 2.42 | 14.51 | 84.02 | 0 | 0 | 1.78 | 1.96 |
| 12:45 | 2 | 24.7 | 52 | 57,787 | 0.15 | 0 | 2.19 | 12.42 | 55.02 | 0 | 0 | 1.84 | 2.02 |
| 12:44 | 2 | 24.8 | 52 | 57,843 | 0.57 | 0 | 2.1 | 13.3 | 53.8 | 0 | 0 | 1.84 | 2.02 |
| 12:43 | 2 | 24.8 | 52 | 57,997 | 0.28 | 0 | 2.14 | 13.23 | 49.77 | 0 | 0 | 1.84 | 2.02 |
| 12:42 | 2 | 24.8 | 53 | 58,041 | 0.18 | 0 | 2.11 | 12.33 | 55.5 | 0 | 0 | 1.83 | 2.01 |
| 12:41 | 2 | 24.8 | 53 | 57,883 | 0 | 0 | 2.04 | 12.33 | 50.33 | 0 | 0 | 1.83 | 2.01 |
| 12:40 | 2 | 24.8 | 53 | 57,649 | 0.07 | 0 | 2.12 | 12.26 | 56 | 0 | 0 | 1.82 | 2 |
| 12:39 | 2 | 24.8 | 53 | 57,344 | 0.44 | 0 | 2.3 | 12.59 | 53.44 | 0 | 0 | 1.82 | 2 |
| 12:38 | 2 | 24.8 | 53 | 57,116 | 0.02 | 0 | 2.36 | 12.45 | 50.25 | 0 | 0 | 1.82 | 2 |
| 12:37 | 2 | 24.8 | 53 | 56,870 | 0.06 | 0 | 2.64 | 16.47 | 53.54 | 0 | 0 | 1.81 | 2 |